STARLINK-37886

Last updated on Sun Aug 09 2026 00:02:04 GMT+0000 (Coordinated Universal Time)

1 69943U 26157A 26220.58335648 -.00006585 00000+0 -11043-3 0 9993 2 69943 53.1595 174.4960 0001122 94.1804 202.5397 15.49310857 6089
UTC large
Height (km)
Speed (km/s)
/
Latitude / Longitude
Inclination (degrees)
Orbital Period (minutes)
Azimuth
Elevation
Range (km)
Doppler Factor

Next 0 passes for location: London (51.5072 / 0.1276)

No passes found over London.
STARLINK-37886